Weather History for Quincy Muni, Quincy, FL, FL

Change the Weather History Date:

Thursday, January 23, 2014

  Actual Average (KTLH) Record (KTLH)
Temperature  
Mean Temperature 38 °F 51 °F  
Max Temperature 50 °F 64 °F 80 °F (1929)
Min Temperature 26 °F 39 °F 20 °F (2011)
Degree Days  
Heating Degree Days 27    
Month to date heating degree days  
Since 1 July heating degree days  
Cooling Degree Days 0    
Month to date cooling degree days  
Year to date cooling degree days  
Moisture  
Dew Point 21 °F    
Average Humidity 58    
Maximum Humidity 93    
Minimum Humidity 28    
Precipitation  
Precipitation 0.00 in 0.15 in 2.24 in (1999)
Month to date precipitation 3.10  
Year to date precipitation 3.10  
Sea Level Pressure  
Sea Level Pressure 30.36 in    
Wind  
Wind Speed 2 mph (NNW)    
Max Wind Speed 10 mph    
Max Gust Speed -    
Visibility 10 miles    
Events      
T = Trace of Precipitation, MM = Missing Value Source: NWS Daily Summary

Daily Weather History Graph

Daily Weather History Graph

Search for Another Location

Airport:

Trip Planner

Search our weather history database for the weather conditions in past years. The results will help you decide how hot, cold, wet, or windy it might be!

Date:

Astronomy

Jan. 23, 2014 Rise Set
Actual Time 7:33 AM EST 6:06 PM EST
Civil Twilight 7:08 AM EST 6:32 PM EST
Nautical Twilight 6:39 AM EST 7:01 PM EST
Astronomical Twilight 6:10 AM EST 7:30 PM EST
Moon 12:07 AM EST (1/23) 11:40 AM EST (1/23)
Length of Visible Light 11h 23m
Length of Day
10h 32m
Waning Gibbous, 55% of the Moon is Illuminated
Jan 23
Waning Gibbous
Jan 24
Last Quarter
Jan 30
New
Feb 6
First Quarter
Feb 14
Full

Hourly Weather History & Observations

Time (EST) Temp. Windchill Dew Point Humidity Pressure Visibility Wind Dir Wind Speed Gust Speed Precip Events Conditions
12:15 AM 28.4 °F - 23.0 °F 80% 30.23 in 10.0 mi Calm Calm - N/A   Overcast
12:35 AM 28.4 °F - 23.0 °F 80% 30.23 in 10.0 mi Calm Calm - N/A   Overcast
12:55 AM 28.4 °F - 23.0 °F 80% 30.23 in 10.0 mi Calm Calm - N/A   Overcast
1:15 AM 28.4 °F - 24.8 °F 86% 30.22 in 10.0 mi Calm Calm - N/A   Overcast
1:35 AM 28.4 °F - 23.0 °F 80% 30.22 in 10.0 mi Calm Calm - N/A   Overcast
1:55 AM 28.4 °F - 24.8 °F 86% 30.24 in 10.0 mi Calm Calm - N/A   Overcast
2:15 AM 30.2 °F - 24.8 °F 80% 30.24 in 10.0 mi Calm Calm - N/A   Overcast
2:35 AM 30.2 °F - 24.8 °F 80% 30.25 in 10.0 mi Calm Calm - N/A   Mostly Cloudy
2:55 AM 28.4 °F - 24.8 °F 86% 30.26 in 10.0 mi Calm Calm - N/A   Scattered Clouds
3:15 AM 28.4 °F - 24.8 °F 86% 30.26 in 10.0 mi Calm Calm - N/A   Mostly Cloudy
3:35 AM 28.4 °F - 24.8 °F 86% 30.26 in 10.0 mi Calm Calm - N/A   Mostly Cloudy
3:55 AM 28.4 °F - 24.8 °F 86% 30.27 in 10.0 mi Calm Calm - N/A   Partly Cloudy
4:15 AM 28.4 °F - 24.8 °F 86% 30.28 in 10.0 mi Calm Calm - N/A   Partly Cloudy
4:35 AM 28.4 °F - 24.8 °F 86% 30.29 in 10.0 mi Calm Calm - N/A   Mostly Cloudy
4:55 AM 28.4 °F - 24.8 °F 86% 30.30 in 10.0 mi Calm Calm - N/A   Partly Cloudy
5:15 AM 26.6 °F - 24.8 °F 93% 30.30 in 10.0 mi Calm Calm - N/A   Scattered Clouds
5:35 AM 28.4 °F - 24.8 °F 86% 30.31 in 10.0 mi Calm Calm - N/A   Mostly Cloudy
5:55 AM 28.4 °F - 24.8 °F 86% 30.30 in 10.0 mi Calm Calm - N/A   Mostly Cloudy
6:15 AM 28.4 °F - 24.8 °F 86% 30.31 in 10.0 mi Calm Calm - N/A   Overcast
6:35 AM 28.4 °F - 24.8 °F 86% 30.31 in 10.0 mi Calm Calm - N/A   Overcast
6:55 AM 28.4 °F - 24.8 °F 86% 30.33 in 10.0 mi Calm Calm - N/A   Overcast
7:15 AM 28.4 °F - 24.8 °F 86% 30.34 in 10.0 mi Calm Calm - N/A   Overcast
7:35 AM 28.4 °F - 24.8 °F 86% 30.35 in 10.0 mi Calm Calm - N/A   Partly Cloudy
7:55 AM 30.2 °F - 26.6 °F 86% 30.35 in 10.0 mi Calm Calm - N/A   Clear
8:15 AM 30.2 °F - 24.8 °F 80% 30.36 in 10.0 mi Calm Calm - N/A   Clear
8:35 AM 32.0 °F - 23.0 °F 69% 30.36 in 10.0 mi Calm Calm - N/A   Clear
8:55 AM 33.8 °F 30.8 °F 17.6 °F 52% 30.37 in 10.0 mi North 3.5 mph - N/A   Clear
9:15 AM 35.6 °F 30.7 °F 17.6 °F 48% 30.38 in 10.0 mi North 5.8 mph - N/A   Clear
9:35 AM 35.6 °F 29.9 °F 15.8 °F 44% 30.39 in 10.0 mi North 6.9 mph - N/A   Clear
9:55 AM 37.4 °F - 15.8 °F 41% 30.40 in 10.0 mi Calm Calm - N/A   Clear
10:15 AM 37.4 °F - 15.8 °F 41% 30.41 in 10.0 mi Calm Calm - N/A   Clear
10:35 AM 39.2 °F 33.6 °F 12.2 °F 33% 30.42 in 10.0 mi North 8.1 mph - N/A   Clear
10:55 AM 39.2 °F 35.0 °F 12.2 °F 33% 30.42 in 10.0 mi NE 5.8 mph - N/A   Clear
11:15 AM 41.0 °F 38.0 °F 12.2 °F 31% 30.42 in 10.0 mi NNE 4.6 mph - N/A   Clear
11:35 AM 42.8 °F 39.3 °F 12.2 °F 29% 30.41 in 10.0 mi North 5.8 mph - N/A   Clear
11:55 AM 44.6 °F 40.7 °F 14.0 °F 29% 30.41 in 10.0 mi NE 6.9 mph - N/A   Clear
12:15 PM 44.6 °F 43.1 °F 15.8 °F 31% 30.40 in 10.0 mi North 3.5 mph - N/A   Clear
12:35 PM 46.4 °F - 15.8 °F 29% 30.39 in 10.0 mi Calm Calm - N/A   Clear
12:55 PM 46.4 °F 44.3 °F 15.8 °F 29% 30.38 in 10.0 mi NNW 4.6 mph - N/A   Clear
1:15 PM 48.2 °F - 17.6 °F 30% 30.37 in 10.0 mi WNW 4.6 mph - N/A   Clear
1:35 PM 48.2 °F - 17.6 °F 30% 30.36 in 10.0 mi Calm Calm - N/A   Clear
1:55 PM 50.0 °F - 17.6 °F 28% 30.35 in 10.0 mi WNW 5.8 mph - N/A   Clear
2:15 PM 50.0 °F - 17.6 °F 28% 30.35 in 10.0 mi WNW 9.2 mph - N/A   Clear
2:35 PM 50.0 °F - 17.6 °F 28% 30.35 in 10.0 mi NW 8.1 mph - N/A   Clear
2:55 PM 50.0 °F - 17.6 °F 28% 30.34 in 10.0 mi WNW 9.2 mph - N/A   Clear
3:15 PM 50.0 °F - 17.6 °F 28% 30.34 in 10.0 mi WNW 8.1 mph - N/A   Clear
3:35 PM 50.0 °F - 17.6 °F 28% 30.35 in 10.0 mi NW 10.4 mph - N/A   Clear
3:55 PM 50.0 °F - 17.6 °F 28% 30.36 in 10.0 mi WNW 8.1 mph - N/A   Clear
4:15 PM 50.0 °F - 17.6 °F 28% 30.36 in 10.0 mi North 8.1 mph - N/A   Clear
4:35 PM 48.2 °F - 17.6 °F 30% 30.38 in 10.0 mi NW 9.2 mph - N/A   Clear
4:55 PM 48.2 °F - 17.6 °F 30% 30.38 in 10.0 mi North 6.9 mph - N/A   Clear
5:15 PM 48.2 °F - 17.6 °F 30% 30.39 in 10.0 mi NNW 5.8 mph - N/A   Clear
5:35 PM 46.4 °F 45.2 °F 17.6 °F 32% 30.39 in 10.0 mi North 3.5 mph - N/A   Clear
6:15 PM 44.6 °F - 19.4 °F 37% 30.40 in 10.0 mi Calm Calm - N/A   Clear
6:35 PM 41.0 °F - 21.2 °F 45% 30.40 in 10.0 mi Calm Calm - N/A   Mostly Cloudy
6:55 PM 39.2 °F - 23.0 °F 52% 30.40 in 10.0 mi Calm Calm - N/A   Overcast
7:15 PM 37.4 °F - 24.8 °F 60% 30.40 in 10.0 mi Calm Calm - N/A   Mostly Cloudy
7:35 PM 35.6 °F - 24.8 °F 65% 30.41 in 10.0 mi Calm Calm - N/A   Overcast
7:55 PM 35.6 °F - 24.8 °F 65% 30.41 in 10.0 mi Calm Calm - N/A   Overcast
8:15 PM 35.6 °F - 24.8 °F 65% 30.42 in 10.0 mi Calm Calm - N/A   Scattered Clouds
8:35 PM 33.8 °F - 26.6 °F 75% 30.42 in 10.0 mi Calm Calm - N/A   Mostly Cloudy
8:55 PM 33.8 °F - 24.8 °F 70% 30.43 in 10.0 mi Calm Calm - N/A   Scattered Clouds
9:35 PM 32.0 °F - 24.8 °F 75% 30.44 in 10.0 mi Calm Calm - N/A   Mostly Cloudy
9:55 PM 32.0 °F - 24.8 °F 75% 30.44 in 10.0 mi Calm Calm - N/A   Mostly Cloudy
10:15 PM 32.0 °F 27.5 °F 24.8 °F 75% 30.44 in 10.0 mi NNW 4.6 mph - N/A   Mostly Cloudy
10:55 PM 37.4 °F - 19.4 °F 48% 30.45 in 10.0 mi Calm Calm - N/A   Mostly Cloudy
11:15 PM 37.4 °F 32.8 °F 19.4 °F 48% 30.46 in 10.0 mi NNW 5.8 mph - N/A   Mostly Cloudy
11:35 PM 37.4 °F 32.8 °F 19.4 °F 48% 30.46 in 10.0 mi NNW 5.8 mph - N/A   Mostly Cloudy
11:55 PM 37.4 °F 32.1 °F 19.4 °F 48% 30.47 in 10.0 mi NNW 6.9 mph - N/A   Mostly Cloudy